Regional Weather Roundup
Issued by NWS

Home | Current Version | Previous Version | Graphics & Text | Print | Product List | Glossary On
Versions: 1 2 3 4 5 6 7 8 9 10 11 12 13 14 15 16 17 18 19 20 21 22 23 24 25 26 27 28 29 30 31 32 33 34 35 36 37 38 39 40 41 42 43 44 45 46 47 48 49 50
000
ASUS45 KPSR 281100
RWRAZ

PRELIMINARY ARIZONA REGIONAL HOURLY WEATHER ROUNDUP
NATIONAL WEATHER SERVICE PHOENIX AZ
400 AM MST SAT FEB 28 2015

NOTE: FAIR INDICATES FEW OR NO CLOUDS BELOW 12,000 FEET WITH NO
SIGNIFICANT WEATHER AND/OR OBSTRUCTIONS TO VISIBILITY.

AZZ001>003-036-281200-
NORTHWEST ARIZONA

CITY           SKY/WX    TMP DP  RH WIND       PRES   REMARKS
KINGMAN        MOCLDY    48  32  53 S9        29.64S
$$

AZZ004>008-015-016-018-281200-
NORTH CENTRAL ARIZONA

CITY           SKY/WX    TMP DP  RH WIND       PRES   REMARKS
GRAND CANYON   CLOUDY    36  32  85 SW17G25   29.66F WCI  26
PRESCOTT       CLOUDY    44  36  73 S10       29.71F
FLAGSTAFF      NOT AVBL
PAYSON         CLOUDY    45  36  70 S10G17    29.77S
PAGE           LGT SNOW  34  31  88 E5        29.68F FOG     WCI  30
$$

AZZ009>014-017-281200-
NORTHEAST ARIZONA

CITY           SKY/WX    TMP DP  RH WIND       PRES   REMARKS
WINSLOW        NOT AVBL
SAINT JOHNS    CLOUDY    44  30  57 SW15      29.74S
WINDOW ROCK    CLOUDY    32  30  92 CALM      29.74F
SHOW LOW       CLOUDY    39  27  60 SW18G24   29.76F WCI  30
$$

AZZ023-281200-
GREATER PHOENIX AREA

CITY           SKY/WX    TMP DP  RH WIND       PRES   REMARKS
PHOENIX        MOCLDY    61  40  45 CALM      29.71S
BUCKEYE        CLOUDY    55  50  82 SW8       29.73S
DEER VALLEY    MOCLDY    59  43  55 SW12      29.71F
SCOTTSDALE     CLOUDY    58  41  53 SE3       29.73F
$$

AZZ027-028-281200-
SOUTHWEST MARICOPA COUNTY AND PINAL COUNTY

CITY           SKY/WX    TMP DP  RH WIND       PRES   REMARKS
CASA GRANDE    PTCLDY    54  37  54 S6        29.75S
$$

AZZ503-504-507>509-281200-
SOUTHEAST ARIZONA

CITY           SKY/WX    TMP DP  RH WIND       PRES   REMARKS
TUCSON         CLEAR     57  38  48 W5        29.81R
DAVIS-MONTHAN  MOCLDY    55  37  51 SW10G17   29.79S
NOGALES        CLEAR     49  39  68 SE10      29.85F
SIERRA VISTA   CLEAR     50  36  58 W3        29.86S
SAFFORD        CLEAR     48  34  58 E8        29.77R
$$

AZZ020-021-025-026-031-281200-
SOUTHWEST ARIZONA

CITY           SKY/WX    TMP DP  RH WIND       PRES   REMARKS
YUMA           NOT AVBL
$$

CAZ031-033-041-043-047-048-061-281200-
SOUTHERN CALIFORNIA

CITY           SKY/WX    TMP DP  RH WIND       PRES   REMARKS
DOWNTOWN L.A.  CLOUDY    55  50  83 CALM      29.75S
L.A. AIRPORT   CLOUDY    56  45  66 W13       29.76S
SAN DIEGO      PTCLDY    60  48  64 W7        29.83F
BURBANK        CLOUDY    55  47  74 S5        29.74F
ONTARIO        CLOUDY    54  48  80 SW6       29.76F
RIVERSIDE      PTCLDY    54  48  80 W8        29.77F
PALM SPRINGS   CLEAR     61  39  44 E6        29.66S
EL CENTRO NAS  CLEAR     61  42  49 S13       29.71S
IMPERIAL       CLEAR     62  44  51 SW20G28   29.69R
BLYTHE         CLEAR     58  44  60 S5        29.66F
$$

NVZ020-UTZ003-281200-
SOUTHERN NEVADA-UTAH

CITY           SKY/WX    TMP DP  RH WIND       PRES   REMARKS
LAS VEGAS      NOT AVBL
SALT LAKE CITY MOCLDY    32  21  64 S9        29.67F WCI  24
$$

NMZ009-TXZ055-281200-
NEW MEXICO-WEST TEXAS

CITY           SKY/WX    TMP DP  RH WIND       PRES   REMARKS
ALBUQUERQUE    LGT SNOW  19  16  88 N12       29.89S VSB 1   WCI   7
EL PASO        PTCLDY    28  20  71 NE5       29.97R WCI  23
$$


........................KEY........................
SKY/WX - SKY CONDITION/WEATHER
TMP    - TEMPERATURE IN FAHRENHEIT
DP     - DEW POINT IN FAHRENHEIT
RH     - RELATIVE HUMIDITY IN PERCENT
WIND   - DIRECTION AND SPEED IN MILES PER HOUR (MPH)
VRB    - VARIABLE WIND DIRECTION
PRES   - MEAN SEA LEVEL PRESSURE IN INCHES OF MERCURY
         F - FALLING PRESSURE   R - RISING PRESSURE
         S - STEADY PRESSURE
VSB    - VISIBILITY IN MILES
HX     - HEAT INDEX IN FAHRENHEIT
WCI    - WIND CHILL INDEX IN FAHRENHEIT
TC     - TEMPERATURE IN CELSIUS WHICH IS ALSO KNOWN AS
         TEMPERATURE IN CENTIGRADE
AFB    - AIR FORCE BASE
         LUKE AFB IS LUKE AIR FORCE BASE
         DAVIS-MONTHAN IS DAVIS-MONTHAN AIR FORCE BASE
NAS    - NAVAL AIR STATION
         EL CENTRO NAS IS EL CENTRO NAVAL AIR STATION
N/A    - NOT AVAILABLE


USA.gov is the U.S. government's official web portal to all federal, state and local government web resources and services.